Date String (YYYY-MM-DD hh:mm:ss) UTC,Instrument flags,absolute air pressure of the measurement (hPa),sample flow rate (lpm),inlet stack bypass flow (lpm),air temperature of the measurement (°C),ambient temperature measured by the external sensor (°C),aerosol sample conditioner tube jacket temperature (°C),OPC LED temperature (°C),internal box temperature (°C),relative humidity of the measurement (%),span deviation,mass concentration of particles derived from Lorenz-Mie calculation of OPC scattering (μg/m³),mass concentration of particles derived from Lorenz-Mie calculation of OPC scattering (μg/m³),mass concentration of particles derived from Lorenz-Mie calculation of OPC scattering (μg/m³)
DateTimeUTC,F1_M11,P_M11,Q1_M11,Q2_M11,T1_M11,T2_M11,T3_M11,T4_M11,T5_M11,U1_M11,ZSPAN_M11,X2_M11,X0_M11,X1_M11
2024-05-08 22:00:00,SystemResetWarning,0822.2,5.00,000.00,024.8,024.2,000.0,032.9,026.5,009.1,0000.0,0000.56,0004.12,0000.31
2024-05-08 22:01:00,SystemResetWarning,0822.2,4.99,000.00,024.8,024.2,000.0,032.9,026.6,009.3,0000.0,0000.44,0002.97,0000.30
2024-05-08 22:02:00,SystemResetWarning,0822.3,4.99,000.00,024.8,024.2,000.0,032.9,026.5,009.1,0000.0,0000.45,0002.87,0000.30
2024-05-08 22:03:00,SystemResetWarning,0822.3,4.99,000.00,024.8,024.2,000.0,032.9,026.6,009.3,0000.0,0000.46,0003.08,0000.30
2024-05-08 22:04:00,SystemResetWarning,0822.2,5.00,000.00,024.8,024.2,000.0,032.9,026.6,009.2,0000.0,0000.47,0002.95,0000.29
2024-05-08 22:05:00,SystemResetWarning,0822.3,5.00,000.00,024.8,024.2,000.0,032.9,026.6,009.2,0000.0,0000.46,0002.88,0000.29
2024-05-08 22:06:00,SystemResetWarning,0822.3,5.01,000.00,024.8,024.2,000.0,032.9,026.6,009.2,0000.0,0000.45,0002.69,0000.29
2024-05-08 22:07:00,SystemResetWarning,0822.3,5.00,000.00,024.9,024.2,000.0,033.0,026.6,009.2,0000.0,0000.51,0004.60,0000.29
2024-05-08 22:08:00,SystemResetWarning,0822.2,4.99,000.00,024.9,024.2,000.0,033.0,026.6,009.3,0000.0,0000.51,0005.66,0000.29
2024-05-08 22:09:00,SystemResetWarning,0822.3,4.99,000.00,024.9,024.2,000.0,033.0,026.6,009.1,0000.0,0000.53,0005.70,0000.29
2024-05-08 22:10:00,SystemResetWarning,0822.3,5.00,000.00,024.9,024.3,000.0,033.0,026.6,009.1,0000.0,0000.54,0005.71,0000.30
2024-05-08 22:11:00,SystemResetWarning,0822.2,5.00,000.00,024.9,024.3,000.0,033.0,026.6,008.9,0000.0,0000.53,0005.69,0000.30
2024-05-08 22:12:00,SystemResetWarning,0822.3,5.00,000.00,024.9,024.2,000.0,033.0,026.6,008.9,0000.0,0000.57,0005.63,0000.30
2024-05-08 22:13:00,SystemResetWarning,0822.3,5.00,000.00,024.9,024.3,000.0,033.0,026.6,008.9,0000.0,0000.56,0005.55,0000.30
2024-05-08 22:14:00,SystemResetWarning,0822.4,5.00,000.00,024.9,024.3,000.0,033.0,026.7,009.0,0000.0,0000.55,0004.12,0000.30
2024-05-08 22:15:00,SystemResetWarning,0822.4,5.00,000.00,024.9,024.3,000.0,033.0,026.7,009.1,0000.0,0000.55,0003.98,0000.30
2024-05-08 22:16:00,SystemResetWarning,0822.4,4.99,000.00,024.9,024.3,000.0,033.0,026.7,008.8,0000.0,0000.56,0004.03,0000.30
2024-05-08 22:17:00,SystemResetWarning,0822.4,4.99,000.00,024.9,024.3,000.0,033.1,026.7,008.7,0000.0,0000.56,0004.03,0000.30
2024-05-08 22:18:00,SystemResetWarning,0822.4,5.00,000.00,025.0,024.3,000.0,033.1,026.7,008.9,0000.0,0000.51,0001.92,0000.30
2024-05-08 22:19:00,SystemResetWarning,0822.4,5.01,000.00,025.0,024.3,000.0,033.1,026.7,009.1,0000.0,0000.51,0001.11,0000.30
2024-05-08 22:20:00,SystemResetWarning,0822.4,5.01,000.00,025.0,024.3,000.0,033.1,026.7,009.0,0000.0,0000.50,0001.23,0000.30
2024-05-08 22:21:00,SystemResetWarning,0822.4,4.99,000.00,025.0,024.3,000.0,033.1,026.7,008.9,0000.0,0000.52,0001.29,0000.30
2024-05-08 22:22:00,SystemResetWarning,0822.4,5.00,000.00,025.0,024.3,000.0,033.1,026.7,008.8,0000.0,0000.54,0001.30,0000.30
2024-05-08 22:23:00,SystemResetWarning,0822.4,5.00,000.00,025.0,024.3,000.0,033.1,026.7,008.7,0000.0,0000.50,0001.21,0000.30
2024-05-08 22:24:00,SystemResetWarning,0822.4,5.00,000.00,025.0,024.3,000.0,033.1,026.7,008.7,0000.0,0000.49,0001.19,0000.30
2024-05-08 22:25:00,SystemResetWarning,0822.5,5.00,000.00,025.0,024.3,000.0,033.1,026.8,008.8,0000.0,0000.49,0001.15,0000.29
2024-05-08 22:26:00,SystemResetWarning,0822.5,5.00,000.00,025.0,024.4,000.0,033.2,026.8,008.9,0000.0,0000.49,0001.12,0000.29
2024-05-08 22:27:00,SystemResetWarning,0822.6,5.00,000.00,025.0,024.4,000.0,033.1,026.7,008.9,0000.0,0000.49,0001.12,0000.29
2024-05-08 22:28:00,SystemResetWarning,0822.4,5.00,000.00,025.1,024.4,000.0,033.1,026.7,009.0,0000.0,0000.51,0001.18,0000.30
2024-05-08 22:29:00,SystemResetWarning,0822.4,5.00,000.00,025.1,024.4,000.0,033.2,026.7,008.7,0000.0,0000.52,0001.22,0000.30
2024-05-08 22:30:00,SystemResetWarning,0822.5,5.01,000.00,025.1,024.4,000.0,033.2,026.8,008.8,0000.0,0000.52,0001.09,0000.30
2024-05-08 22:31:00,SystemResetWarning,0823.1,5.00,000.00,025.1,024.4,000.0,033.2,026.8,008.7,0000.0,0000.52,0000.92,0000.31
2024-05-08 22:32:00,SystemResetWarning,0822.9,5.00,000.00,025.1,024.4,000.0,033.2,026.8,008.6,0000.0,0000.51,0000.88,0000.30
2024-05-08 22:33:00,SystemResetWarning,0823.0,5.00,000.00,025.1,024.4,000.0,033.2,026.8,008.7,0000.0,0000.52,0001.00,0000.31
2024-05-08 22:34:00,SystemResetWarning,0822.8,5.00,000.00,025.1,024.4,000.0,033.2,026.8,008.6,0000.0,0000.54,0001.00,0000.31
2024-05-08 22:35:00,SystemResetWarning,0822.7,5.00,000.00,025.1,024.4,000.0,033.2,026.8,008.5,0000.0,0000.54,0001.02,0000.30
2024-05-08 22:36:00,SystemResetWarning,0822.7,5.00,000.00,025.1,024.4,000.0,033.2,026.9,008.7,0000.0,0000.54,0001.04,0000.30
2024-05-08 22:37:00,SystemResetWarning,0822.7,4.99,000.00,025.1,024.4,000.0,033.2,026.9,008.9,0000.0,0000.52,0001.02,0000.30
2024-05-08 22:38:00,SystemResetWarning,0822.8,4.99,000.00,025.1,024.5,000.0,033.2,026.9,008.6,0000.0,0000.52,0000.99,0000.29
2024-05-08 22:39:00,SystemResetWarning,0822.7,5.00,000.00,025.1,024.5,000.0,033.2,026.9,008.7,0000.0,0000.51,0000.95,0000.29
2024-05-08 22:40:00,SystemResetWarning,0822.6,5.01,000.00,025.2,024.5,000.0,033.2,026.9,008.8,0000.0,0000.50,0000.91,0000.28
2024-05-08 22:41:00,SystemResetWarning,0822.7,5.00,000.00,025.2,024.5,000.0,033.2,026.9,008.9,0000.0,0000.51,0000.94,0000.27
2024-05-08 22:42:00,SystemResetWarning,0822.8,5.00,000.00,025.2,024.5,000.0,033.3,026.9,009.0,0000.0,0000.53,0001.04,0000.27
2024-05-08 22:43:00,SystemResetWarning,0822.6,5.01,000.00,025.2,024.5,000.0,033.3,026.9,009.2,0000.0,0000.54,0001.07,0000.27
2024-05-08 22:44:00,SystemResetWarning,0822.7,5.00,000.00,025.2,024.5,000.0,033.3,026.9,009.0,0000.0,0000.52,0000.96,0000.28
2024-05-08 22:45:00,SystemResetWarning,0822.6,5.00,000.00,025.2,024.5,000.0,033.3,026.9,009.1,0000.0,0000.52,0000.95,0000.28
2024-05-08 22:46:00,SystemResetWarning,0822.7,5.00,000.00,025.2,024.5,000.0,033.3,026.9,009.0,0000.0,0000.52,0001.61,0000.28
2024-05-08 22:47:00,SystemResetWarning,0822.8,5.00,000.00,025.2,024.5,000.0,033.3,026.9,009.1,0000.0,0000.54,0001.68,0000.29
2024-05-08 22:48:00,SystemResetWarning,0822.7,5.00,000.00,025.2,024.5,000.0,033.3,026.9,009.1,0000.0,0000.53,0001.70,0000.29
2024-05-08 22:49:00,SystemResetWarning,0822.7,5.01,000.00,025.2,024.5,000.0,033.3,027.0,008.9,0000.0,0000.54,0001.71,0000.30
2024-05-08 22:50:00,SystemResetWarning,0822.7,5.01,000.00,025.2,024.5,000.0,033.3,027.0,009.1,0000.0,0000.54,0001.70,0000.31
2024-05-08 22:51:00,SystemResetWarning,0822.7,5.00,000.00,025.2,024.5,000.0,033.3,027.0,009.5,0000.0,0000.53,0002.32,0000.31
2024-05-08 22:52:00,SystemResetWarning,0822.8,4.99,000.00,025.2,024.6,000.0,033.3,027.0,009.2,0000.0,0000.53,0002.40,0000.32
2024-05-08 22:53:00,SystemResetWarning,0822.6,4.99,000.00,025.3,024.6,000.0,033.4,027.0,008.9,0000.0,0000.50,0002.30,0000.32
2024-05-08 22:54:00,SystemResetWarning,0822.7,5.00,000.00,025.3,024.5,000.0,033.4,027.0,009.0,0000.0,0000.48,0002.24,0000.32
2024-05-08 22:55:00,SystemResetWarning,0822.7,5.02,000.00,025.3,024.5,000.0,033.4,027.0,009.0,0000.0,0000.48,0002.23,0000.32
2024-05-08 22:56:00,SystemResetWarning,0822.7,5.01,000.00,025.3,024.6,000.0,033.4,027.0,009.3,0000.0,0000.48,0003.06,0000.31
2024-05-08 22:57:00,SystemResetWarning,0822.8,5.00,000.00,025.3,024.6,000.0,033.4,027.0,009.2,0000.0,0000.46,0002.44,0000.31
2024-05-08 22:58:00,SystemResetWarning,0822.7,4.99,000.00,025.3,024.6,000.0,033.4,027.0,009.1,0000.0,0000.46,0002.39,0000.31
2024-05-08 22:59:00,SystemResetWarning,0822.7,4.99,000.00,025.3,024.6,000.0,033.4,027.0,009.0,0000.0,0000.46,0002.37,0000.31
